Latest Weather Observations for Falls Creek

IDV60801

Issued at 10:02 am EST Saturday 25 April 2015 (issued every 30 minutes, with the page automatically refreshed every 10 minutes)

About weather observations | Map of weather stations | Latest weather observations for VIC | Other Formats
Station Details ID: 083084 Name: FALLS CREEK Lat: -36.87 Lon: 147.28 Height: 1765.0 m
Data from the previous 72 hours. | See also: Recent months at Falls Creek
Date/Time
EST
Temp
°C
App
Temp
°C
Dew
Point
Rel
Hum
%
Delta-T
°C
Wind Press
QNH
hPa
Press
MSL
hPa
Rain
since 9 am
mm
Dir
 
Spd
km/h
Gust
km/h
Spd
kts
Gust
kts
25/10:00am 0.2 -4.6 0.2 100 0.0 NW 15 24 8 13 1009.9 1006.5 5.2
25/09:30am 0.2 -5.4 0.2 100 0.0 W 19 24 10 13 1009.6 1006.3 2.8
25/09:00am 0.4 -5.3 0.4 100 0.0 W 20 30 11 16 1009.4 1006.0 8.0
25/08:30am 3.3 0.7 3.3 100 0.0 N 6 7 3 4 1008.9 1005.5 5.2
25/08:00am 3.4 -0.5 3.4 100 0.0 NNW 13 17 7 9 1008.8 1005.4 5.2
25/07:30am 3.3 -1.0 3.3 100 0.0 N 15 22 8 12 1008.6 1005.2 5.2
25/07:00am 3.3 0.5 3.3 100 0.0 N 7 11 4 6 1008.3 1004.9 5.2
25/06:30am 3.2 -0.4 3.2 100 0.0 N 11 15 6 8 1008.2 1004.8 5.2
25/06:00am 3.2 0.4 3.2 100 0.0 NNW 7 7 4 4 1007.7 1004.3 5.2
25/05:30am 2.8 -0.4 2.8 100 0.0 NNW 9 13 5 7 1007.6 1004.2 5.2
25/05:00am 2.7 -0.2 2.7 100 0.0 NW 7 7 4 4 1007.7 1004.3 5.2
25/04:30am 2.8 0.1 2.8 100 0.0 WNW 6 7 3 4 1008.0 1004.5 5.2
25/04:00am 3.1 0.9 3.1 100 0.0 NW 4 9 2 5 1008.1 1004.7 5.2
25/03:30am 3.4 1.2 3.4 100 0.0 WSW 4 11 2 6 1007.9 1004.4 5.2
25/03:00am 3.5 0.0 3.5 100 0.0 NW 11 17 6 9 1008.3 1004.9 5.2
25/02:30am 3.5 0.8 3.5 100 0.0 NNW 7 17 4 9 1008.3 1004.9 5.2
25/02:00am 3.3 -0.2 3.3 100 0.0 NW 11 19 6 10 1008.5 1005.0 5.2
25/01:30am 3.6 -0.3 3.6 100 0.0 NNW 13 20 7 11 1008.6 1005.2 5.2
25/01:00am 3.8 -0.4 3.8 100 0.0 NW 15 24 8 13 1008.6 1005.2 5.2
25/12:30am 3.5 -1.7 3.5 100 0.0 NW 20 32 11 17 1008.5 1005.0 5.2
25/12:00am 3.6 -2.0 3.6 100 0.0 NNW 22 33 12 18 1008.5 1005.0 5.2
 
Date/Time
EST
Temp
°C
App
Temp
°C
Dew
Point
Rel
Hum
%
Delta-T
°C
Wind Press
QNH
hPa
Press
MSL
hPa
Rain
since 9 am
mm
Dir
 
Spd
km/h
Gust
km/h
Spd
kts
Gust
kts
24/11:30pm 3.7 -2.2 3.7 100 0.0 NNW 24 33 13 18 1008.6 1005.2 5.2
24/11:00pm 3.9 -2.0 3.9 100 0.0 NNW 24 39 13 21 1008.5 1005.0 5.2
24/10:30pm 3.7 -1.9 3.7 100 0.0 NNW 22 35 12 19 1008.7 1005.3 5.2
24/10:00pm 3.8 -3.6 3.8 100 0.0 NNW 32 46 17 25 1008.8 1005.4 5.2
24/09:38pm 4.0 -2.6 4.0 100 0.0 NW 28 46 15 25 1008.6 1005.2 5.2
24/09:30pm 4.0 -1.9 4.0 100 0.0 NW 24 43 13 23 1008.7 1005.3 5.2
24/09:00pm 4.1 -1.8 4.1 100 0.0 NNW 24 41 13 22 1008.7 1005.3 5.2
24/08:30pm 4.0 -3.4 4.0 100 0.0 NNW 32 48 17 26 1008.3 1004.9 5.2
24/08:00pm 4.0 -3.6 4.0 100 0.0 NNW 33 44 18 24 1008.2 1004.8 5.2
24/07:31pm 4.4 -2.9 4.4 100 0.0 NNW 32 50 17 27 1008.1 1004.7 5.2
24/07:30pm 4.5 -2.8 4.5 100 0.0 NNW 32 48 17 26 1008.1 1004.7 5.2
24/07:00pm 4.8 -2.6 4.8 100 0.0 NNW 33 52 18 28 1007.7 1004.3 5.2
24/06:30pm 5.1 -2.3 5.1 100 0.0 NNW 33 52 18 28 1007.3 1003.8 5.2
24/06:12pm 4.9 -2.9 4.9 100 0.0 NNW 35 54 19 29 1007.1 1003.7 5.2
24/06:00pm 4.9 -2.9 4.9 100 0.0 NNW 35 50 19 27 1007.0 1003.6 4.4
24/05:30pm 5.0 -2.2 5.0 100 0.0 NNW 32 44 17 24 1007.3 1003.8 4.4
24/05:00pm 5.1 -0.6 5.1 100 0.0 NW 24 35 13 19 1007.4 1003.9 4.4
24/04:30pm 5.3 -0.7 5.3 100 0.0 NNW 26 35 14 19 1007.3 1003.8 4.4
24/04:20pm 5.3 -1.8 5.3 100 0.0 NNW 32 52 17 28 1007.1 1003.7 4.4
24/04:00pm 5.3 -1.1 5.3 100 0.0 NNW 28 41 15 22 1007.3 1003.8 4.4
24/03:30pm 5.7 -0.2 5.7 100 0.0 NW 26 41 14 22 1007.3 1003.8 4.4
24/03:13pm 5.6 -0.7 5.6 100 0.0 NW 28 46 15 25 1007.3 1003.8 4.4
24/03:00pm 5.6 -0.3 5.6 100 0.0 NNW 26 43 14 23 1007.1 1003.7 4.4
24/02:30pm 5.5 -1.2 5.5 100 0.0 NW 30 41 16 22 1007.1 1003.7 4.4
24/02:00pm 5.7 -0.6 5.7 100 0.0 WNW 28 39 15 21 1007.1 1003.7 4.4
24/01:30pm 5.8 -1.2 5.8 100 0.0 NNW 32 44 17 24 1006.9 1003.4 4.4
24/01:11pm 5.9 -0.7 5.9 100 0.0 NW 30 50 16 27 1006.9 1003.4 4.4
24/01:00pm 5.8 -1.2 5.8 100 0.0 NNW 32 46 17 25 1007.1 1003.7 4.4
24/12:37pm 6.3 0.1 6.3 100 0.0 NNW 28 48 15 26 1007.3 1003.8 4.2
24/12:30pm 6.3 0.5 6.3 100 0.0 NNW 26 44 14 24 1007.1 1003.7 4.2
24/12:00pm 6.3 0.5 6.3 100 0.0 NW 26 41 14 22 1008.0 1004.5 4.2
24/11:34am 6.4 -0.1 6.4 100 0.0 NW 30 52 16 28 1008.2 1004.8 4.2
24/11:30am 6.4 0.6 6.4 100 0.0 NW 26 44 14 24 1008.2 1004.8 4.2
24/11:00am 6.7 1.4 6.7 100 0.0 NW 24 39 13 21 1008.5 1005.0 4.0
24/10:36am 6.9 0.9 6.9 100 0.0 NNW 28 46 15 25 1008.5 1005.0 3.8
24/10:30am 7.0 1.4 7.0 100 0.0 NNW 26 37 14 20 1008.5 1005.0 3.6
24/10:00am 7.2 0.9 7.2 100 0.0 NNW 30 44 16 24 1008.7 1005.3 2.0
24/09:30am 7.4 2.6 7.4 100 0.0 NNW 22 37 12 20 1008.9 1005.5 1.0
24/09:00am 7.5 2.7 7.5 100 0.0 NNW 22 43 12 23 1009.2 1005.8 12.6
24/08:30am 7.6 3.8 7.6 100 0.0 NW 17 22 9 12 1009.3 1005.9 10.8
24/08:00am 7.9 4.6 7.9 100 0.0 NW 15 28 8 15 1009.4 1006.0 7.4
24/07:30am 7.7 3.6 7.7 100 0.0 NNW 19 26 10 14 1009.3 1005.9 4.6
24/07:00am 7.7 4.3 7.7 100 0.0 NNW 15 20 8 11 1009.2 1005.8 3.8
24/06:30am 7.7 3.9 7.7 100 0.0 NNW 17 24 9 13 1009.3 1005.9 3.4
24/06:00am 7.8 4.8 7.8 100 0.0 NNW 13 19 7 10 1009.4 1006.0 2.0
24/05:30am 7.8 4.4 7.8 100 0.0 NNW 15 20 8 11 1009.5 1006.1 1.4
24/05:00am 7.6 3.8 7.6 100 0.0 NNW 17 22 9 12 1009.6 1006.3 1.4
24/04:30am 7.7 3.9 7.7 100 0.0 NNW 17 26 9 14 1009.9 1006.5 1.4
24/04:00am 7.7 4.7 7.7 100 0.0 NW 13 20 7 11 1010.1 1006.8 1.4
24/03:30am 7.7 4.7 7.7 100 0.0 NNW 13 20 7 11 1010.4 1007.0 1.4
24/03:00am 7.8 4.4 7.8 100 0.0 NNW 15 20 8 11 1010.6 1007.3 1.4
24/02:30am 7.8 4.8 7.8 100 0.0 NW 13 19 7 10 1011.3 1008.0 1.4
24/02:00am 7.7 4.7 7.7 100 0.0 NW 13 17 7 9 1011.4 1008.1 1.4
24/01:30am 7.6 5.0 7.6 100 0.0 NW 11 17 6 9 1012.0 1008.7 1.4
24/01:00am 7.6 3.8 7.6 100 0.0 NW 17 22 9 12 1012.3 1009.0 1.4
24/12:30am 7.8 4.4 7.8 100 0.0 NNW 15 19 8 10 1012.7 1009.5 1.4
24/12:00am 7.8 5.6 7.8 100 0.0 NNW 9 13 5 7 1013.2 1010.0 1.4
 
Date/Time
EST
Temp
°C
App
Temp
°C
Dew
Point
Rel
Hum
%
Delta-T
°C
Wind Press
QNH
hPa
Press
MSL
hPa
Rain
since 9 am
mm
Dir
 
Spd
km/h
Gust
km/h
Spd
kts
Gust
kts
23/11:30pm 7.7 5.8 7.7 100 0.0 N 7 9 4 5 1013.5 1010.2 1.4
23/11:00pm 7.6 5.3 7.6 100 0.0 N 9 11 5 6 1013.8 1010.6 1.4
23/10:30pm 7.2 5.2 7.2 100 0.0 NE 7 9 4 5 1014.2 1011.0 1.4
23/10:00pm 7.3 5.5 7.3 100 0.0 ENE 6 9 3 5 1014.4 1011.2 1.4
23/09:30pm 6.8 4.7 6.8 100 0.0 SE 7 9 4 5 1014.5 1011.3 1.4
23/09:00pm 6.9 3.7 6.9 100 0.0 SE 13 15 7 8 1014.5 1011.3 1.4
23/08:30pm 7.3 3.8 7.3 100 0.0 SE 15 17 8 9 1014.9 1011.7 1.4
23/08:00pm 7.6 5.0 7.6 100 0.0 SE 11 15 6 8 1015.4 1012.2 1.4
23/07:30pm 7.9 5.7 7.9 100 0.0 SSE 9 13 5 7 1015.6 1012.4 1.2
23/07:00pm 7.8 4.8 7.8 100 0.0 S 13 13 7 7 1015.8 1012.7 1.2
23/06:30pm 7.9 4.9 7.9 100 0.0 SSE 13 17 7 9 1015.8 1012.7 1.2
23/06:00pm 8.0 5.1 8.0 100 0.0 SSE 13 17 7 9 1015.7 1012.6 1.2
23/05:30pm 8.1 4.8 8.1 100 0.0 SSE 15 19 8 10 1015.5 1012.3 1.0
23/05:00pm 8.0 4.7 8.0 100 0.0 SSE 15 19 8 10 1015.4 1012.2 1.0
23/04:30pm 8.5 5.3 8.5 100 0.0 SSE 15 20 8 11 1015.4 1012.2 1.0
23/04:00pm 8.4 5.6 8.4 100 0.0 SSE 13 20 7 11 1015.6 1012.4 1.0
23/03:30pm 8.4 4.4 8.4 100 0.0 SSE 19 24 10 13 1015.7 1012.6 1.0
23/03:00pm 8.9 5.1 8.9 100 0.0 SSE 19 26 10 14 1016.1 1012.9 1.0
23/02:30pm 9.1 5.3 9.1 100 0.0 SSE 19 28 10 15 1016.1 1012.9 1.0
23/02:00pm 8.6 4.5 8.6 100 0.0 SSE 20 28 11 15 1016.3 1013.2 0.8
23/01:30pm 8.5 4.6 8.5 100 0.0 SSE 19 26 10 14 1016.7 1013.6 0.6
23/01:00pm 8.4 4.8 8.4 100 0.0 SSE 17 28 9 15 1016.9 1013.8 0.4
23/12:30pm 8.6 4.7 8.6 100 0.0 SSE 19 30 10 16 1017.4 1014.3 0.4
23/12:00pm 8.4 4.2 8.4 100 0.0 SSE 20 33 11 18 1018.0 1014.9 0.4
23/11:30am 8.3 2.6 8.3 100 0.0 SSE 28 41 15 22 1018.4 1015.4 0.4
23/11:00am 8.0 2.2 8.0 100 0.0 SSE 28 41 15 22 1018.8 1015.8 0.4
23/10:30am 7.9 2.9 7.9 100 0.0 SSE 24 35 13 19 1019.0 1016.0 0.2
23/10:00am 7.6 1.3 7.6 100 0.0 SSE 30 35 16 19 1019.0 1016.0 0.2
23/09:30am 7.6 1.3 7.6 100 0.0 SSE 30 41 16 22 1019.0 1016.0 0.2
23/09:00am 7.4 0.7 7.4 100 0.0 SSE 32 44 17 24 1019.0 1016.0 2.0
23/08:30am 7.3 0.4 7.3 100 0.0 SSE 33 46 18 25 1018.9 1015.9 2.0
23/08:00am 7.2 -0.1 7.2 100 0.0 SSE 35 46 19 25 1019.0 1016.0 2.0
23/07:30am 7.1 -0.6 7.1 100 0.0 SSE 37 48 20 26 1018.8 1015.8 2.0
23/07:00am 6.9 -1.6 6.9 100 0.0 SSE 41 52 22 28 1018.6 1015.5 2.0
23/06:30am 6.8 -1.3 6.8 100 0.0 SSE 39 52 21 28 1018.3 1015.3 2.0
23/06:01am 6.8 -1.0 6.8 100 0.0 SSE 37 56 20 30 1018.4 1015.4 2.0
23/06:00am 6.7 -1.1 6.7 100 0.0 SSE 37 50 20 27 1018.6 1015.5 2.0
23/05:30am 6.7 -1.5 6.7 100 0.0 SSE 39 54 21 29 1018.4 1015.4 2.0
23/05:00am 6.6 -2.0 6.6 100 0.0 S 41 57 22 31 1018.2 1015.2 2.0
23/04:30am 6.4 -2.6 6.4 100 0.0 S 43 61 23 33 1017.9 1014.8 2.0
23/04:00am 6.2 -2.8 6.2 100 0.0 S 43 61 23 33 1017.9 1014.8 2.0
23/03:30am 6.3 -3.3 6.3 100 0.0 SSE 46 65 25 35 1017.6 1014.5 2.0
23/03:23am 6.2 -3.4 6.2 100 0.0 SSE 46 65 25 35 1017.7 1014.7 2.0
23/03:00am 6.1 -4.3 6.1 100 0.0 SSE 50 67 27 36 1017.4 1014.3 2.0
23/02:30am 5.9 -4.9 5.9 100 0.0 SSE 52 65 28 35 1017.7 1014.7 2.0
23/02:00am 5.6 -5.7 5.6 100 0.0 SSE 54 69 29 37 1017.5 1014.4 2.0
23/01:40am 5.7 -5.5 5.7 100 0.0 SSE 54 72 29 39 1017.6 1014.5 2.0
23/01:30am 5.6 -5.7 5.6 100 0.0 SSE 54 67 29 36 1017.7 1014.7 2.0
23/01:15am 5.4 -5.5 5.4 100 0.0 SSE 52 72 28 39 1017.9 1014.8 2.0
23/01:00am 5.3 -5.6 5.3 100 0.0 SSE 52 69 28 37 1017.9 1014.8 2.0
23/12:30am 5.2 -5.8 5.2 100 0.0 SSE 52 70 28 38 1017.7 1014.7 2.0
23/12:27am 5.2 -5.8 5.2 100 0.0 SSE 52 70 28 38 1017.7 1014.7 2.0
23/12:00am 5.1 -5.5 5.1 100 0.0 SSE 50 63 27 34 1018.1 1015.0 2.0
 
Date/Time
EST
Temp
°C
App
Temp
°C
Dew
Point
Rel
Hum
%
Delta-T
°C
Wind Press
QNH
hPa
Press
MSL
hPa
Rain
since 9 am
mm
Dir
 
Spd
km/h
Gust
km/h
Spd
kts
Gust
kts
22/11:38pm 5.0 -4.5 5.0 100 0.0 SSE 44 65 24 35 1018.4 1015.4 2.0
22/11:30pm 5.0 -4.3 5.0 100 0.0 SSE 43 57 23 31 1018.7 1015.7 2.0
22/11:00pm 4.9 -4.0 4.9 100 0.0 SSE 41 63 22 34 1019.0 1016.0 2.0
22/10:30pm 5.0 -3.9 5.0 100 0.0 SSE 41 59 22 32 1019.6 1016.6 2.0
22/10:00pm 4.8 -5.1 4.8 100 0.0 SSE 46 65 25 35 1019.4 1016.4 2.0
22/09:31pm 4.7 -4.7 4.7 100 0.0 SSE 43 63 23 34 1019.3 1016.3 2.0
22/09:30pm 4.7 -4.7 4.7 100 0.0 SSE 43 57 23 31 1019.4 1016.4 2.0
22/09:00pm 4.7 -4.7 4.7 100 0.0 SSE 43 59 23 32 1020.1 1017.1 2.0
22/08:47pm 4.7 -3.5 4.7 100 0.0 SSE 37 57 20 31 1020.1 1017.1 2.0
22/08:30pm 4.7 -3.1 4.7 100 0.0 SSE 35 52 19 28 1020.2 1017.3 2.0
22/08:16pm 4.7 -2.6 4.7 100 0.0 SSE 32 50 17 27 1020.3 1017.4 2.0
22/08:00pm 4.7 -3.5 4.7 100 0.0 SSE 37 50 20 27 1020.5 1017.5 2.0
22/07:30pm 4.5 -4.1 4.5 100 0.0 SSE 39 52 21 28 1020.3 1017.4 2.0
22/07:01pm 4.5 -4.1 4.5 100 0.0 SSE 39 59 21 32 1020.2 1017.3 2.0
22/07:00pm 4.5 -4.1 4.5 100 0.0 SSE 39 56 21 30 1020.2 1017.3 2.0
22/06:34pm 4.6 -4.0 4.6 100 0.0 SSE 39 57 21 31 1020.1 1017.1 2.0
22/06:30pm 4.6 -4.4 4.6 100 0.0 SSE 41 56 22 30 1020.0 1017.0 2.0
22/06:00pm 4.7 -3.9 4.7 100 0.0 SSE 39 54 21 29 1019.9 1016.9 2.0
22/05:30pm 4.7 -3.9 4.7 100 0.0 SSE 39 50 21 27 1020.1 1017.1 2.0
22/05:00pm 4.7 -3.1 4.7 100 0.0 SSE 35 54 19 29 1020.1 1017.1 2.0
22/04:56pm 4.7 -2.6 4.7 100 0.0 SSE 32 54 17 29 1020.0 1017.0 2.0
22/04:30pm 4.8 -2.6 4.8 100 0.0 SSE 33 46 18 25 1020.7 1017.8 2.0
22/04:00pm 5.0 -3.2 5.0 100 0.0 SSE 37 52 20 28 1020.8 1017.9 2.0
22/03:30pm 4.9 -2.5 4.9 100 0.0 SSE 33 52 18 28 1020.7 1017.8 2.0
22/03:28pm 5.0 -2.2 5.0 100 0.0 SSE 32 50 17 27 1020.8 1017.9 2.0
22/03:00pm 5.4 -1.7 5.4 100 0.0 SSE 32 44 17 24 1021.3 1018.4 2.0
22/02:30pm 5.4 -1.0 5.4 100 0.0 SSE 28 44 15 24 1021.5 1018.6 2.0
22/02:04pm 5.3 -2.0 5.3 100 0.0 SSE 33 54 18 29 1021.2 1018.2 2.0
22/02:00pm 5.4 -1.9 5.4 100 0.0 SSE 33 46 18 25 1021.3 1018.4 2.0
22/01:30pm 5.4 -3.0 5.4 100 0.0 SSE 39 54 21 29 1021.1 1018.1 2.0
22/01:00pm 5.0 -4.3 5.0 100 0.0 SSE 43 61 23 33 1021.5 1018.6 2.0
22/12:35pm 5.3 -3.2 5.3 100 0.0 SSE 39 59 21 32 1021.5 1018.6 2.0
22/12:30pm 5.2 -2.9 5.2 100 0.0 SSE 37 52 20 28 1021.7 1018.7 2.0
22/12:00pm 5.0 -5.2 5.0 100 0.0 SSE 48 70 26 38 1021.8 1018.9 1.8
22/11:59am 5.0 -4.9 5.0 100 0.0 SSE 46 69 25 37 1021.7 1018.7 1.8
22/11:30am 5.4 -1.3 5.4 100 0.0 SSE 30 48 16 26 1022.8 1020.0 1.8
22/11:00am 5.0 -3.2 5.0 100 0.0 SSE 37 56 20 30 1022.7 1019.9 1.2
22/10:38am 4.9 -3.3 4.9 100 0.0 SSE 37 56 20 30 1022.4 1019.5 1.0
22/10:30am 4.9 -3.7 4.9 100 0.0 SSE 39 56 21 30 1022.3 1019.4 1.0

Other Formats:

Comma delimited format used in spreadsheet applications
http://www.bom.gov.au/fwo/IDV60801/IDV60801.94903.axf

JavaScript Object Notation format (JSON) in row-major order
http://www.bom.gov.au/fwo/IDV60801/IDV60801.94903.json